Location: ??
(35.5052°N, 139.7262°E)
Time: 08:24:09
(UTC+00:00)

COSMOS 2251 DEB - Visible Passes

Search period start: 29 January 2022 00:00
Search period end: 08 February 2022 00:00
Orbit: 737 x 768 km, 74.0° (Epoch: 26 January)

Date Brightness Start Highest point End Pass type
(mag) Time Alt. Az. Time Alt. Az. Time Alt. Az.
29 Jan ? 09:38:58 10° N 09:42:51 34° NE 09:42:51 34° NE visible
29 Jan ? 11:21:14 10° NW 11:22:54 17° WNW 11:22:54 17° WNW visible
30 Jan ? 08:58:03 10° NNE 09:01:44 19° ENE 09:03:52 15° E visible
30 Jan ? 10:38:44 10° NNW 10:43:38 44° WSW 10:43:59 43° WSW visible
31 Jan ? 09:56:46 10° NNW 10:01:58 90° W 10:06:57 11° SSE visible
01 Feb ? 09:15:13 10° N 09:20:10 45° ENE 09:25:09 10° SE visible
01 Feb ? 10:58:08 10° NW 11:01:28 17° W 11:04:49 10° SW visible
02 Feb ? 08:34:05 10° N 08:38:15 24° ENE 08:42:23 10° ESE visible
02 Feb ? 10:15:19 10° NW 10:19:59 35° W 10:24:40 10° SSW visible
03 Feb ? 09:33:12 10° NNW 09:38:22 72° WSW 09:43:33 10° S visible
04 Feb ? 08:51:30 10° N 08:56:37 57° ENE 09:01:44 10° SSE visible
04 Feb ? 10:35:15 10° WNW 10:37:45 14° W 10:40:17 10° SW visible
05 Feb ? 09:51:57 10° NW 09:56:19 28° W 10:00:40 10° SSW visible
05 Feb ? 21:03:39 10° ESE 21:04:51 11° E 21:06:02 10° E visible
06 Feb ? 09:09:40 10° NNW 09:14:44 56° WSW 09:19:49 10° S visible
07 Feb ? 10:13:10 10° W 10:14:02 10° W 10:14:53 10° WSW visible
